| time (UTC) | temp F | wind direction | speed MPH | gust MPH | rain 1hr in | rain 24hr in | rain mn in | humidity % | barometer mb |
| 20260506175805 | 61 | 206 | 5.0 | 6.0 | 0.00 | 0.16 | 0.16 | 94 | 997.0 |
| 20260506175305 | 61 | 150 | 4.0 | 5.0 | 0.00 | 0.16 | 0.16 | 94 | 996.6 |
| 20260506174800 | 61 | 185 | 4.0 | 6.0 | 0.00 | 0.16 | 0.16 | 94 | 996.6 |
| 20260506174257 | 61 | 193 | 6.0 | 8.0 | 0.00 | 0.16 | 0.16 | 95 | 997.1 |
| 20260506173754 | 61 | 242 | 7.0 | 10.0 | 0.00 | 0.16 | 0.16 | 96 | 997.1 |
| 20260506173251 | 61 | 154 | 4.0 | 6.0 | 0.00 | 0.16 | 0.16 | 96 | 996.8 |
| 20260506172748 | 61 | 192 | 7.0 | 9.0 | 0.00 | 0.16 | 0.16 | 96 | 996.8 |
| 20260506172244 | 61 | 149 | 1.0 | 2.0 | 0.00 | 0.16 | 0.16 | 96 | 996.9 |
| 20260506171742 | 61 | 204 | 4.0 | 5.0 | 0.00 | 0.16 | 0.16 | 96 | 997.0 |
| 20260506171239 | 61 | 188 | 1.0 | 2.0 | 0.00 | 0.16 | 0.16 | 97 | 997.1 |
| 20260506170737 | 61 | 212 | 4.0 | 6.0 | 0.00 | 0.16 | 0.16 | 96 | 996.9 |
| 20260506170233 | 61 | 170 | 3.0 | 5.0 | 0.00 | 0.16 | 0.16 | 96 | 996.9 |
| 20260506165732 | 61 | 156 | 4.0 | 5.0 | 0.00 | 0.16 | 0.16 | 96 | 997.0 |
| 20260506165228 | 61 | 179 | 3.0 | 5.0 | 0.00 | 0.16 | 0.16 | 96 | 996.9 |
| 20260506164726 | 61 | 110 | 4.0 | 6.0 | 0.00 | 0.16 | 0.16 | 96 | 997.1 |
| 20260506164222 | 61 | 184 | 3.0 | 3.0 | 0.05 | 0.16 | 0.16 | 97 | 996.8 |
| 20260506163719 | 61 | 201 | 3.0 | 3.0 | 0.05 | 0.16 | 0.16 | 97 | 996.8 |
| 20260506163214 | 61 | 179 | 2.0 | 2.0 | 0.00 | 0.15 | 0.15 | 97 | 997.3 |
| 20260506162710 | 61 | 138 | 3.0 | 3.0 | 0.07 | 0.15 | 0.15 | 97 | 997.1 |
| 20260506162208 | 61 | 170 | 4.0 | 5.0 | 0.14 | 0.15 | 0.15 | 96 | 997.1 |
| 20260506161705 | 61 | 203 | 3.0 | 5.0 | 0.07 | 0.14 | 0.14 | 96 | 997.2 |
| 20260506161202 | 60 | 174 | 3.0 | 3.0 | 0.05 | 0.13 | 0.13 | 96 | 997.7 |
| 20260506160659 | 61 | 167 | 1.0 | 1.0 | 0.12 | 0.13 | 0.13 | 96 | 997.8 |
| 20260506160156 | 61 | 190 | 3.0 | 3.0 | 0.07 | 0.12 | 0.12 | 95 | 998.1 |
| 20260506155655 | 61 | 165 | 5.0 | 5.0 | 0.05 | 0.11 | 0.11 | 95 | 998.0 |
| 20260506155151 | 61 | 160 | 3.0 | 5.0 | 0.12 | 0.11 | 0.11 | 95 | 998.1 |
| 20260506153253 | 61 | 214 | 1.0 | 3.0 | 0.19 | 0.08 | 0.08 | 93 | 998.3 |
| 20260506152750 | 61 | 145 | 1.0 | 1.0 | 0.17 | 0.07 | 0.07 | 93 | 998.3 |
| 20260506152248 | 61 | 157 | 2.0 | 2.0 | 0.05 | 0.05 | 0.05 | 92 | 998.1 |
| 20260506151747 | 62 | 179 | 3.0 | 3.0 | 0.07 | 0.04 | 0.04 | 91 | 998.2 |
| 20260506151243 | 62 | 191 | 3.0 | 3.0 | 0.07 | 0.04 | 0.04 | 90 | 997.9 |
| 20260506150739 | 62 | 183 | 5.0 | 7.0 | 0.07 | 0.03 | 0.03 | 89 | 998.1 |
| 20260506150237 | 62 | 209 | 2.0 | 2.0 | 0.07 | 0.03 | 0.03 | 89 | 998.5 |
| 20260506145733 | 63 | 235 | 6.0 | 8.0 | 0.05 | 0.02 | 0.02 | 87 | 998.2 |
| 20260506145230 | 63 | 173 | 3.0 | 3.0 | 0.05 | 0.02 | 0.02 | 86 | 998.2 |
| 20260506144727 | 63 | 193 | 2.0 | 2.0 | 0.00 | 0.01 | 0.01 | 86 | 997.8 |
| 20260506144224 | 63 | 194 | 3.0 | 5.0 | 0.07 | 0.01 | 0.01 | 86 | 998.0 |
| 20260506143721 | 64 | 206 | 3.0 | 5.0 | 0.07 | 0.01 | 0.01 | 84 | 998.3 |
| 20260506143219 | 64 | 219 | 4.0 | 6.0 | 0.00 | 0.00 | 0.00 | 82 | 998.1 |
| 20260506142718 | 64 | 218 | 4.0 | 6.0 | 0.00 | 0.00 | 0.00 | 80 | 998.4 |
| 20260506142215 | 65 | 190 | 3.0 | 3.0 | 0.00 | 0.00 | 0.00 | 78 | 998.2 |
| 20260506141713 | 65 | 185 | 4.0 | 5.0 | 0.00 | 0.00 | 0.00 | 77 | 998.2 |
| 20260506141211 | 66 | 105 | 6.0 | 9.0 | 0.00 | 0.00 | 0.00 | 75 | 998.3 |
| 20260506140708 | 66 | 212 | 5.0 | 6.0 | 0.00 | 0.00 | 0.00 | 74 | 998.2 |
| 20260506140205 | 66 | 150 | 3.0 | 3.0 | 0.00 | 0.00 | 0.00 | 74 | 998.0 |
| 20260506135702 | 66 | 204 | 5.0 | 6.0 | 0.00 | 0.00 | 0.00 | 74 | 997.9 |
| 20260506135158 | 67 | 236 | 9.0 | 11.0 | 0.00 | 0.00 | 0.00 | 73 | 997.9 |
| 20260506134655 | 67 | 151 | 4.0 | 5.0 | 0.00 | 0.00 | 0.00 | 74 | 998.1 |
| 20260506134151 | 66 | 181 | 3.0 | 3.0 | 0.00 | 0.00 | 0.00 | 74 | 997.9 |
| 20260506133648 | 66 | 209 | 6.0 | 7.0 | 0.00 | 0.00 | 0.00 | 75 | 998.0 |
| 20260506133145 | 66 | 193 | 3.0 | 3.0 | 0.00 | 0.00 | 0.00 | 76 | 998.3 |
| 20260506132643 | 66 | 175 | 4.0 | 6.0 | 0.00 | 0.00 | 0.00 | 76 | 998.0 |
| 20260506132139 | 66 | 168 | 2.0 | 2.0 | 0.00 | 0.00 | 0.00 | 75 | 998.1 |
| 20260506131637 | 66 | 220 | 4.0 | 6.0 | 0.00 | 0.00 | 0.00 | 75 | 998.1 |
| 20260506131133 | 66 | 173 | 3.0 | 3.0 | 0.00 | 0.00 | 0.00 | 75 | 998.1 |
| 20260506130630 | 66 | 235 | 7.0 | 11.0 | 0.00 | 0.00 | 0.00 | 75 | 998.3 |
| 20260506130127 | 66 | 208 | 4.0 | 5.0 | 0.00 | 0.00 | 0.00 | 75 | 998.2 |
| 20260506125625 | 66 | 169 | 5.0 | 9.0 | 0.00 | 0.00 | 0.00 | 75 | 998.2 |
| 20260506125123 | 66 | 139 | 7.0 | 9.0 | 0.00 | 0.00 | 0.00 | 75 | 998.2 |
| 20260506124620 | 66 | 207 | 8.0 | 9.0 | 0.00 | 0.00 | 0.00 | 75 | 998.4 |
| 20260506124118 | 66 | 150 | 5.0 | 6.0 | 0.00 | 0.00 | 0.00 | 75 | 998.0 |
| 20260506123616 | 66 | 135 | 3.0 | 5.0 | 0.00 | 0.00 | 0.00 | 76 | 998.0 |
| 20260506123114 | 66 | 208 | 4.0 | 5.0 | 0.00 | 0.00 | 0.00 | 76 | 998.1 |
| 20260506122610 | 65 | 197 | 5.0 | 8.0 | 0.00 | 0.00 | 0.00 | 76 | 998.1 |
| 20260506122108 | 65 | 192 | 3.0 | 3.0 | 0.00 | 0.00 | 0.00 | 77 | 998.0 |
| 20260506121606 | 65 | 168 | 4.0 | 5.0 | 0.00 | 0.00 | 0.00 | 78 | 998.0 |
| 20260506121102 | 65 | 168 | 3.0 | 3.0 | 0.00 | 0.00 | 0.00 | 78 | 997.8 |
| 20260506120600 | 65 | 155 | 4.0 | 5.0 | 0.00 | 0.00 | 0.00 | 78 | 997.8 |
| 20260506120057 | 64 | 181 | 5.0 | 6.0 | 0.00 | 0.00 | 0.00 | 79 | 997.8 |
| 20260506115555 | 64 | 219 | 4.0 | 5.0 | 0.00 | 0.00 | 0.00 | 78 | 997.9 |
| 20260506115053 | 64 | 189 | 3.0 | 5.0 | 0.00 | 0.00 | 0.00 | 79 | 997.9 |
| 20260506114550 | 64 | 164 | 3.0 | 3.0 | 0.00 | 0.00 | 0.00 | 80 | 997.8 |
| 20260506114048 | 64 | 128 | 3.0 | 3.0 | 0.00 | 0.00 | 0.00 | 80 | 997.8 |
| 20260506113546 | 64 | 171 | 7.0 | 8.0 | 0.00 | 0.00 | 0.00 | 80 | 998.0 |
| 20260506113043 | 64 | 181 | 1.0 | 2.0 | 0.00 | 0.00 | 0.00 | 80 | 997.7 |
| 20260506112539 | 64 | 159 | 2.0 | 3.0 | 0.00 | 0.00 | 0.00 | 80 | 997.8 |
| 20260506112037 | 64 | 170 | 2.0 | 2.0 | 0.00 | 0.00 | 0.00 | 80 | 997.8 |
| 20260506111535 | 63 | 178 | 3.0 | 5.0 | 0.00 | 0.00 | 0.00 | 81 | 998.0 |
| 20260506111032 | 63 | 186 | 2.0 | 2.0 | 0.00 | 0.00 | 0.00 | 81 | 997.9 |
| 20260506110530 | 63 | 176 | 3.0 | 3.0 | 0.00 | 0.00 | 0.00 | 81 | 997.9 |
| 20260506110027 | 63 | 204 | 3.0 | 5.0 | 0.00 | 0.00 | 0.00 | 81 | 997.7 |
| 20260506105522 | 63 | 204 | 3.0 | 3.0 | 0.00 | 0.00 | 0.00 | 81 | 998.0 |
| 20260506105020 | 63 | 189 | 3.0 | 5.0 | 0.00 | 0.00 | 0.00 | 81 | 997.9 |
| 20260506104518 | 63 | 209 | 3.0 | 3.0 | 0.00 | 0.00 | 0.00 | 81 | 997.7 |
| 20260506104016 | 63 | 146 | 3.0 | 3.0 | 0.00 | 0.00 | 0.00 | 82 | 997.6 |
| 20260506103513 | 63 | 177 | 1.0 | 2.0 | 0.00 | 0.00 | 0.00 | 82 | 997.9 |
| 20260506103009 | 63 | 199 | 3.0 | 3.0 | 0.00 | 0.00 | 0.00 | 82 | 998.0 |
| 20260506102508 | 63 | 174 | 2.0 | 2.0 | 0.00 | 0.00 | 0.00 | 82 | 997.6 |
| 20260506102005 | 63 | 190 | 3.0 | 5.0 | 0.00 | 0.00 | 0.00 | 82 | 997.8 |
| 20260506101501 | 63 | 151 | 1.0 | 1.0 | 0.00 | 0.00 | 0.00 | 82 | 997.8 |
| 20260506100958 | 63 | 201 | 4.0 | 5.0 | 0.00 | 0.00 | 0.00 | 82 | 997.8 |
| 20260506100457 | 63 | 155 | 2.0 | 6.0 | 0.00 | 0.00 | 0.00 | 82 | 997.6 |
| 20260506095954 | 63 | 182 | 3.0 | 3.0 | 0.00 | 0.00 | 0.00 | 82 | 997.8 |
| 20260506095453 | 63 | 166 | 4.0 | 6.0 | 0.00 | 0.00 | 0.00 | 82 | 997.7 |
| 20260506094948 | 63 | 168 | 3.0 | 3.0 | 0.00 | 0.00 | 0.00 | 82 | 998.0 |
| 20260506094447 | 63 | 190 | 3.0 | 3.0 | 0.00 | 0.00 | 0.00 | 82 | 997.9 |
| 20260506093944 | 63 | 215 | 2.0 | 3.0 | 0.00 | 0.00 | 0.00 | 81 | 998.1 |
| 20260506093442 | 63 | 107 | 3.0 | 3.0 | 0.00 | 0.00 | 0.00 | 81 | 997.7 |
| 20260506092940 | 64 | 182 | 2.0 | 3.0 | 0.00 | 0.00 | 0.00 | 81 | 997.7 |
| 20260506092437 | 64 | 195 | 4.0 | 5.0 | 0.00 | 0.00 | 0.00 | 81 | 997.6 |
| 20260506091934 | 64 | 176 | 1.0 | 2.0 | 0.00 | 0.00 | 0.00 | 81 | 997.8 |
| 20260506091432 | 64 | 187 | 3.0 | 5.0 | 0.00 | 0.00 | 0.00 | 81 | 997.8 |
| 20260506090929 | 64 | 162 | 4.0 | 5.0 | 0.00 | 0.00 | 0.00 | 80 | 998.0 |
| 20260506090426 | 64 | 167 | 1.0 | 2.0 | 0.00 | 0.00 | 0.00 | 80 | 997.8 |
| 20260506085923 | 64 | 126 | 3.0 | 3.0 | 0.00 | 0.00 | 0.00 | 80 | 998.0 |
| 20260506085420 | 64 | 164 | 1.0 | 1.0 | 0.00 | 0.00 | 0.00 | 80 | 997.8 |
| 20260506084916 | 64 | 146 | 3.0 | 6.0 | 0.00 | 0.00 | 0.00 | 80 | 998.0 |
| 20260506084413 | 64 | 216 | 3.0 | 3.0 | 0.00 | 0.00 | 0.00 | 80 | 997.9 |
| 20260506083909 | 64 | 159 | 2.0 | 3.0 | 0.00 | 0.00 | 0.00 | 80 | 997.8 |
| 20260506083407 | 65 | 156 | 3.0 | 3.0 | 0.00 | 0.00 | 0.00 | 79 | 997.7 |
| 20260506082904 | 65 | 182 | 2.0 | 3.0 | 0.00 | 0.00 | 0.00 | 79 | 997.7 |
| 20260506082401 | 65 | 154 | 1.0 | 2.0 | 0.00 | 0.00 | 0.00 | 78 | 997.9 |
| 20260506081856 | 65 | 145 | 1.0 | 2.0 | 0.00 | 0.00 | 0.00 | 78 | 997.9 |
| 20260506081355 | 65 | 218 | 4.0 | 7.0 | 0.00 | 0.00 | 0.00 | 78 | 998.0 |
| 20260506080852 | 65 | 227 | 4.0 | 5.0 | 0.00 | 0.00 | 0.00 | 78 | 998.0 |
| 20260506080349 | 65 | 167 | 2.0 | 2.0 | 0.00 | 0.00 | 0.00 | 79 | 998.2 |
| 20260506073333 | 65 | 223 | 3.0 | 3.0 | 0.00 | 0.00 | 0.00 | 78 | 998.1 |
| 20260506072829 | 65 | 183 | 2.0 | 2.0 | 0.00 | 0.00 | 0.00 | 78 | 998.1 |
| 20260506072327 | 65 | 185 | 4.0 | 5.0 | 0.00 | 0.00 | 0.00 | 78 | 998.1 |
| 20260506071825 | 65 | 156 | 3.0 | 6.0 | 0.00 | 0.00 | 0.00 | 77 | 998.1 |
| 20260506071323 | 66 | 157 | 3.0 | 3.0 | 0.00 | 0.00 | 0.00 | 77 | 998.1 |
| 20260506070819 | 66 | 228 | 6.0 | 8.0 | 0.00 | 0.00 | 0.00 | 77 | 998.1 |
| 20260506070316 | 66 | 200 | 3.0 | 3.0 | 0.00 | 0.00 | 0.00 | 77 | 998.2 |
| 20260506062253 | 66 | 244 | 7.0 | 9.0 | 0.00 | 0.00 | 0.00 | 74 | 998.5 |
| 20260506061749 | 66 | 161 | 2.0 | 3.0 | 0.00 | 0.00 | 0.00 | 75 | 998.5 |
| 20260506061247 | 66 | 162 | 2.0 | 2.0 | 0.00 | 0.00 | 0.00 | 75 | 998.6 |
| 20260506060745 | 66 | 146 | 4.0 | 5.0 | 0.00 | 0.00 | 0.00 | 74 | 998.5 |
| 20260506060242 | 66 | 205 | 3.0 | 5.0 | 0.00 | 0.00 | 0.00 | 74 | 998.5 |
| 20260506051209 | 67 | 185 | 2.0 | 2.0 | 0.00 | 0.00 | 0.00 | 72 | 998.8 |
| 20260506050707 | 67 | 196 | 3.0 | 3.0 | 0.00 | 0.00 | 0.00 | 72 | 998.9 |
| 20260506050204 | 67 | 192 | 3.0 | 3.0 | 0.00 | 0.00 | 0.00 | 71 | 999.0 |
| 20260506044655 | 67 | 181 | 3.0 | 3.0 | 0.00 | 0.00 | 0.00 | 70 | 999.1 |
| 20260506044151 | 67 | 199 | 3.0 | 3.0 | 0.00 | 0.00 | 0.00 | 70 | 999.1 |
| 20260506043649 | 67 | 174 | 3.0 | 3.0 | 0.00 | 0.00 | 0.00 | 70 | 999.2 |
| 20260506043147 | 67 | 149 | 3.0 | 3.0 | 0.00 | 0.00 | 0.00 | 70 | 999.2 |
| 20260506042646 | 67 | 124 | 0.0 | 0.0 | 0.00 | 0.00 | 0.00 | 69 | 999.4 |
| 20260506042143 | 67 | 163 | 0.0 | 0.0 | 0.00 | 0.00 | 0.00 | 69 | 999.0 |
| 20260506041641 | 67 | 151 | 2.0 | 2.0 | 0.00 | 0.00 | 0.00 | 69 | 999.2 |
| 20260506041137 | 67 | 206 | 2.0 | 2.0 | 0.00 | 0.00 | 0.00 | 69 | 999.2 |
| 20260506040635 | 67 | 159 | 0.0 | 1.0 | 0.00 | 0.00 | 0.00 | 69 | 999.2 |
| 20260506040132 | 67 | 153 | 1.0 | 2.0 | 0.00 | 0.00 | 0.00 | 68 | 999.1 |
| 20260506035629 | 67 | 190 | 2.0 | 2.0 | 0.00 | 0.00 | 0.00 | 68 | 999.0 |
| 20260506035125 | 67 | 169 | 1.0 | 1.0 | 0.00 | 0.00 | 0.00 | 68 | 998.9 |
| 20260506034622 | 67 | 160 | 1.0 | 1.0 | 0.00 | 0.00 | 0.00 | 68 | 999.3 |
| 20260506034119 | 67 | 162 | 1.0 | 1.0 | 0.00 | 0.00 | 0.00 | 68 | 998.9 |
| 20260506033617 | 67 | 172 | 1.0 | 1.0 | 0.00 | 0.00 | 0.00 | 67 | 998.8 |
| 20260506033114 | 67 | 193 | 3.0 | 3.0 | 0.00 | 0.00 | 0.00 | 67 | 998.8 |
| 20260506032612 | 67 | 165 | 2.0 | 3.0 | 0.00 | 0.00 | 0.00 | 67 | 998.8 |
| 20260506032108 | 68 | 160 | 1.0 | 2.0 | 0.00 | 0.00 | 0.00 | 67 | 999.0 |
| 20260506031605 | 68 | 165 | 4.0 | 5.0 | 0.00 | 0.00 | 0.00 | 67 | 998.9 |
| 20260506031102 | 68 | 197 | 2.0 | 2.0 | 0.00 | 0.00 | 0.00 | 66 | 998.9 |
| 20260506030600 | 68 | 193 | 3.0 | 3.0 | 0.00 | 0.00 | 0.00 | 66 | 998.8 |
| 20260506030058 | 68 | 169 | 2.0 | 3.0 | 0.00 | 0.00 | 0.00 | 66 | 998.8 |
| 20260506025554 | 68 | 167 | 4.0 | 5.0 | 0.00 | 0.00 | 0.00 | 66 | 999.0 |
| 20260506025050 | 68 | 189 | 3.0 | 3.0 | 0.00 | 0.00 | 0.00 | 65 | 999.1 |
| 20260506024547 | 68 | 209 | 2.0 | 2.0 | 0.00 | 0.00 | 0.00 | 65 | 999.0 |
| 20260506024043 | 69 | 149 | 4.0 | 7.0 | 0.00 | 0.00 | 0.00 | 64 | 998.9 |
| 20260506023539 | 69 | 163 | 4.0 | 5.0 | 0.00 | 0.00 | 0.00 | 63 | 999.3 |
| 20260506023037 | 69 | 176 | 3.0 | 5.0 | 0.00 | 0.00 | 0.00 | 62 | 998.9 |
| 20260506022534 | 69 | 179 | 2.0 | 3.0 | 0.00 | 0.00 | 0.00 | 61 | 999.0 |
| 20260506022032 | 70 | 151 | 2.0 | 3.0 | 0.00 | 0.00 | 0.00 | 60 | 999.2 |
| 20260506021529 | 70 | 157 | 1.0 | 1.0 | 0.00 | 0.00 | 0.00 | 58 | 998.9 |
| 20260506021026 | 71 | 179 | 3.0 | 3.0 | 0.00 | 0.00 | 0.00 | 57 | 998.9 |
| 20260506020524 | 71 | 145 | 0.0 | 1.0 | 0.00 | 0.00 | 0.00 | 56 | 999.1 |
| 20260506020021 | 71 | 170 | 3.0 | 5.0 | 0.00 | 0.00 | 0.00 | 55 | 998.8 |
| 20260506015518 | 72 | 194 | 2.0 | 2.0 | 0.00 | 0.00 | 0.00 | 54 | 998.7 |
| 20260506015015 | 72 | 212 | 5.0 | 6.0 | 0.00 | 0.00 | 0.00 | 53 | 998.6 |
| 20260506014513 | 72 | 184 | 3.0 | 6.0 | 0.00 | 0.00 | 0.00 | 53 | 998.8 |
| 20260506014008 | 72 | 138 | 3.0 | 6.0 | 0.00 | 0.00 | 0.00 | 53 | 998.6 |
| 20260506013507 | 72 | 223 | 5.0 | 6.0 | 0.00 | 0.00 | 0.00 | 52 | 998.9 |
| 20260506013003 | 73 | 174 | 2.0 | 3.0 | 0.00 | 0.00 | 0.00 | 52 | 998.6 |
| 20260506012459 | 73 | 110 | 3.0 | 3.0 | 0.00 | 0.00 | 0.00 | 52 | 998.4 |
| 20260506011956 | 73 | 168 | 1.0 | 2.0 | 0.00 | 0.00 | 0.00 | 51 | 998.6 |
| 20260506011454 | 73 | 144 | 4.0 | 6.0 | 0.00 | 0.00 | 0.00 | 51 | 998.6 |
| 20260506010951 | 73 | 159 | 3.0 | 3.0 | 0.00 | 0.00 | 0.00 | 50 | 998.7 |
| 20260506010450 | 73 | 168 | 3.0 | 5.0 | 0.00 | 0.00 | 0.00 | 50 | 998.3 |
| 20260506005945 | 73 | 217 | 3.0 | 5.0 | 0.00 | 0.00 | 0.00 | 49 | 998.3 |
| 20260506005444 | 73 | 139 | 6.0 | 9.0 | 0.00 | 0.00 | 0.00 | 49 | 998.3 |
| 20260506004944 | 74 | 150 | 4.0 | 5.0 | 0.00 | 0.00 | 0.00 | 48 | 998.3 |
| 20260506004442 | 74 | 196 | 3.0 | 3.0 | 0.00 | 0.00 | 0.00 | 48 | 998.2 |
| 20260506003938 | 74 | 142 | 2.0 | 3.0 | 0.00 | 0.00 | 0.00 | 48 | 998.1 |
| 20260506003435 | 74 | 186 | 5.0 | 8.0 | 0.00 | 0.00 | 0.00 | 48 | 998.1 |
| 20260506002931 | 74 | 170 | 1.0 | 1.0 | 0.00 | 0.00 | 0.00 | 48 | 998.0 |
| 20260506002427 | 75 | 151 | 4.0 | 8.0 | 0.00 | 0.00 | 0.00 | 47 | 998.0 |
| 20260506001922 | 75 | 160 | 5.0 | 7.0 | 0.00 | 0.00 | 0.00 | 46 | 998.1 |
| 20260506001420 | 75 | 199 | 3.0 | 5.0 | 0.00 | 0.00 | 0.00 | 47 | 997.9 |
| 20260506000917 | 75 | 155 | 3.0 | 3.0 | 0.00 | 0.00 | 0.00 | 46 | 997.9 |
| 20260506000416 | 75 | 198 | 4.0 | 5.0 | 0.00 | 0.00 | 0.00 | 46 | 997.8 |
| 20260505235911 | 75 | 195 | 4.0 | 5.0 | 0.00 | 0.00 | 0.00 | 47 | 997.7 |
| 20260505235409 | 75 | 162 | 4.0 | 6.0 | 0.00 | 0.00 | 0.00 | 47 | 997.7 |
| 20260505234906 | 75 | 177 | 5.0 | 7.0 | 0.00 | 0.00 | 0.00 | 47 | 997.7 |
| 20260505234403 | 76 | 190 | 4.0 | 5.0 | 0.00 | 0.00 | 0.00 | 47 | 997.5 |
| 20260505233900 | 76 | 214 | 2.0 | 3.0 | 0.00 | 0.00 | 0.00 | 47 | 997.7 |
| 20260505233358 | 76 | 151 | 2.0 | 2.0 | 0.00 | 0.00 | 0.00 | 47 | 997.6 |
| 20260505232855 | 76 | 199 | 4.0 | 5.0 | 0.00 | 0.00 | 0.00 | 46 | 997.8 |
| 20260505232353 | 76 | 233 | 5.0 | 13.0 | 0.00 | 0.00 | 0.00 | 46 | 997.9 |
| 20260505231849 | 77 | 142 | 4.0 | 6.0 | 0.00 | 0.00 | 0.00 | 46 | 997.5 |
| 20260505231347 | 77 | 218 | 5.0 | 8.0 | 0.00 | 0.00 | 0.00 | 46 | 997.9 |
| 20260505230845 | 77 | 180 | 2.0 | 3.0 | 0.00 | 0.00 | 0.00 | 46 | 997.9 |
| 20260505230342 | 77 | 134 | 5.0 | 6.0 | 0.00 | 0.00 | 0.00 | 46 | 997.5 |
| 20260505225839 | 77 | 158 | 3.0 | 5.0 | 0.00 | 0.00 | 0.00 | 46 | 997.4 |
| 20260505225336 | 78 | 150 | 3.0 | 3.0 | 0.00 | 0.00 | 0.00 | 45 | 997.4 |
| 20260505224830 | 78 | 146 | 4.0 | 6.0 | 0.00 | 0.00 | 0.00 | 44 | 997.2 |
| 20260505224329 | 78 | 233 | 9.0 | 11.0 | 0.00 | 0.00 | 0.00 | 41 | 997.2 |
| 20260505223826 | 78 | 149 | 4.0 | 6.0 | 0.00 | 0.00 | 0.00 | 40 | 997.3 |
| 20260505223323 | 79 | 149 | 2.0 | 3.0 | 0.00 | 0.00 | 0.00 | 40 | 997.2 |
| 20260505222818 | 79 | 97 | 1.0 | 2.0 | 0.00 | 0.00 | 0.00 | 39 | 997.5 |
| 20260505222314 | 79 | 179 | 9.0 | 13.0 | 0.00 | 0.00 | 0.00 | 38 | 997.4 |
| 20260505221812 | 80 | 171 | 2.0 | 5.0 | 0.00 | 0.00 | 0.00 | 39 | 997.6 |
| 20260505221309 | 80 | 226 | 4.0 | 5.0 | 0.00 | 0.00 | 0.00 | 39 | 997.4 |
| 20260505220806 | 80 | 178 | 5.0 | 8.0 | 0.00 | 0.00 | 0.00 | 38 | 997.2 |
| 20260505220303 | 80 | 189 | 5.0 | 6.0 | 0.00 | 0.00 | 0.00 | 38 | 997.3 |
| 20260505215801 | 80 | 227 | 7.0 | 13.0 | 0.00 | 0.00 | 0.00 | 37 | 997.1 |
| 20260505215258 | 80 | 219 | 8.0 | 13.0 | 0.00 | 0.00 | 0.00 | 36 | 997.1 |
| 20260505214756 | 80 | 205 | 8.0 | 10.0 | 0.00 | 0.00 | 0.00 | 37 | 997.3 |
| 20260505214253 | 80 | 117 | 7.0 | 8.0 | 0.00 | 0.00 | 0.00 | 36 | 997.2 |
| 20260505213750 | 80 | 174 | 7.0 | 10.0 | 0.00 | 0.00 | 0.00 | 36 | 997.0 |
| 20260505213248 | 81 | 178 | 5.0 | 6.0 | 0.00 | 0.00 | 0.00 | 36 | 997.2 |
| 20260505212743 | 81 | 142 | 7.0 | 10.0 | 0.00 | 0.00 | 0.00 | 36 | 997.3 |
| 20260505212241 | 80 | 223 | 3.0 | 3.0 | 0.00 | 0.00 | 0.00 | 37 | 997.1 |
| 20260505211738 | 80 | 185 | 3.0 | 3.0 | 0.00 | 0.00 | 0.00 | 38 | 997.3 |
| 20260505211235 | 80 | 212 | 4.0 | 5.0 | 0.00 | 0.00 | 0.00 | 37 | 997.2 |
| 20260505210731 | 80 | 201 | 3.0 | 3.0 | 0.00 | 0.00 | 0.00 | 38 | 997.2 |
| 20260505210228 | 80 | 226 | 8.0 | 14.0 | 0.00 | 0.00 | 0.00 | 36 | 997.1 |
| 20260505205726 | 80 | 146 | 4.0 | 6.0 | 0.00 | 0.00 | 0.00 | 37 | 997.2 |
| 20260505205224 | 80 | 117 | 4.0 | 5.0 | 0.00 | 0.00 | 0.00 | 36 | 997.3 |
| 20260505204720 | 80 | 213 | 7.0 | 9.0 | 0.00 | 0.00 | 0.00 | 35 | 997.2 |
| 20260505204218 | 80 | 160 | 6.0 | 8.0 | 0.00 | 0.00 | 0.00 | 35 | 997.2 |
| 20260505203715 | 80 | 180 | 9.0 | 13.0 | 0.00 | 0.00 | 0.00 | 35 | 997.3 |
| 20260505203212 | 80 | 157 | 5.0 | 8.0 | 0.00 | 0.00 | 0.00 | 35 | 997.2 |
| 20260505202707 | 80 | 232 | 8.0 | 13.0 | 0.00 | 0.00 | 0.00 | 34 | 997.1 |
| 20260505202204 | 81 | 223 | 6.0 | 10.0 | 0.00 | 0.00 | 0.00 | 34 | 997.1 |
| 20260505201700 | 81 | 223 | 8.0 | 9.0 | 0.00 | 0.00 | 0.00 | 33 | 997.4 |
| 20260505201158 | 81 | 189 | 5.0 | 6.0 | 0.00 | 0.00 | 0.00 | 34 | 997.4 |
| 20260505200656 | 81 | 206 | 2.0 | 3.0 | 0.00 | 0.00 | 0.00 | 34 | 997.0 |
| 20260505200152 | 81 | 251 | 9.0 | 13.0 | 0.00 | 0.00 | 0.00 | 34 | 997.2 |
| 20260505195648 | 81 | 136 | 9.0 | 13.0 | 0.00 | 0.00 | 0.00 | 33 | 997.5 |
| 20260505195146 | 81 | 206 | 7.0 | 13.0 | 0.00 | 0.00 | 0.00 | 34 | 997.3 |
| 20260505194643 | 81 | 161 | 6.0 | 8.0 | 0.00 | 0.00 | 0.00 | 33 | 997.2 |
| 20260505194139 | 81 | 179 | 7.0 | 9.0 | 0.00 | 0.00 | 0.00 | 34 | 997.3 |
| 20260505193636 | 81 | 212 | 5.0 | 6.0 | 0.00 | 0.00 | 0.00 | 33 | 997.2 |
| 20260505193133 | 81 | 201 | 4.0 | 7.0 | 0.00 | 0.00 | 0.00 | 34 | 997.5 |
| 20260505192632 | 81 | 186 | 9.0 | 13.0 | 0.00 | 0.00 | 0.00 | 34 | 997.5 |
| 20260505192129 | 81 | 223 | 7.0 | 10.0 | 0.00 | 0.00 | 0.00 | 36 | 997.3 |
| 20260505191627 | 81 | 221 | 11.0 | 14.0 | 0.00 | 0.00 | 0.00 | 36 | 997.5 |
| 20260505191125 | 81 | 200 | 8.0 | 18.0 | 0.00 | 0.00 | 0.00 | 38 | 997.6 |
| 20260505190620 | 81 | 170 | 4.0 | 6.0 | 0.00 | 0.00 | 0.00 | 37 | 997.4 |
| 20260505190115 | 81 | 213 | 9.0 | 10.0 | 0.00 | 0.00 | 0.00 | 37 | 997.7 |
| 20260505185613 | 81 | 200 | 4.0 | 5.0 | 0.00 | 0.00 | 0.00 | 38 | 997.6 |
| 20260505185109 | 82 | 161 | 6.0 | 7.0 | 0.00 | 0.00 | 0.00 | 39 | 997.7 |
| 20260505184605 | 81 | 200 | 7.0 | 9.0 | 0.00 | 0.00 | 0.00 | 40 | 997.7 |
| 20260505184102 | 81 | 185 | 6.0 | 7.0 | 0.00 | 0.00 | 0.00 | 39 | 997.8 |
| 20260505183559 | 81 | 154 | 5.0 | 7.0 | 0.00 | 0.00 | 0.00 | 40 | 998.0 |
| 20260505183056 | 80 | 175 | 2.0 | 2.0 | 0.00 | 0.00 | 0.00 | 40 | 998.2 |
| 20260505182552 | 81 | 243 | 10.0 | 11.0 | 0.00 | 0.00 | 0.00 | 38 | 998.4 |
| 20260505182049 | 81 | 220 | 6.0 | 10.0 | 0.00 | 0.00 | 0.00 | 40 | 998.1 |
| 20260505181546 | 80 | 213 | 6.0 | 9.0 | 0.00 | 0.00 | 0.00 | 39 | 998.4 |
| 20260505181043 | 80 | 177 | 3.0 | 5.0 | 0.00 | 0.00 | 0.00 | 40 | 998.3 |
| 20260505180539 | 81 | 183 | 4.0 | 6.0 | 0.00 | 0.00 | 0.00 | 42 | 998.5 |
| 20260505180037 | 80 | 171 | 3.0 | 6.0 | 0.00 | 0.00 | 0.00 | 41 | 998.6 |